Weather in Mochegay

Russia / Orenburg Oblast     53°41′11″N   53°09′28″E
temp.,
°C
wind,
m/s
gust,
m/s
humid.,
%
clouds,
%
prec.,
mm/h
press.,
hPa
HPBL,
m
28 february, sun
sun2823:000ssw4899100 4.9 998368
02:000sw3599100 1.5 998220
05:00−3nw3597100 2.0 998158
08:00−9nw339694 0.1 99952
11:00−7nnw479592 0.1 1001288
14:00−9nnw479496 0.0 1003339
17:00−10nnw479398 0.1 1005407
20:00−13nnw3795100 0.1 1008147
1 march, mon
mon123:00−16nw239587 0.1 101024
02:00−17nw229684 0.0 101223
05:00−18nw229887 0.0 101420
08:00−17nnw229688 0.1 101629
11:00−16nnw239480 0.1 1018194
14:00−14nw239085 0.0 1019305
17:00−14nw359393 0.0 1021349
20:00−19wnw2210090 0.0 102120
2 march, tue
tue223:00−22wsw2210072 0.0 102120
02:00−23sw2310033 0.0 102022
05:00−23ssw3410054 0.0 101867
08:00−21s51010094 0.0 1016193
11:00−17s7119797 0.1 1013301
14:00−12ssw81394100 0.5 1010464
17:00−10ssw81494100 1.4 1007575
20:00−8s71494100 0.8 1004611
3 march, wed
wed323:00−5ssw61395100 1.6 1002545
02:00−4ssw61296100 0.9 999471
05:00−4sw5997100 1.8 998330
08:00−5wsw479799 0.5 998193
11:00−4w589699 0.9 999459
14:00−3nw5792100 0.1 1001609
17:00−3nw5790100 0.1 1002616
20:00−4nw479299 0.1 1003404
4 march, thu
thu423:00−5wnw4793100 0.2 1005269
02:00−8wnw369693 0.1 1006150
05:00−9nw379693 0.3 1008143
08:00−12nw449769 0.0 100970
11:00−11wnw499446 0.0 1012274
14:00−8w579479 0.0 1012382
17:00−7wsw6109490 0.1 1012521
20:00−9sw71495100 0.1 1011449